Location: Lane
(33.5226°N, 79.8788°W)
Time: 15:33:21
(UTC+00:00)

Transit 2A Rocket - All Passes

Search period start: 26 September 2022 00:00
Search period end: 06 October 2022 00:00
Orbit: 593 x 907 km, 66.7° (Epoch: 25 September)

Date Brightness Start Highest point End Pass type
(mag) Time Alt. Az. Time Alt. Az. Time Alt. Az.
26 Sep - 11:58:33 10° SSW 12:02:55 66° ESE 12:07:11 10° NNE daylight
26 Sep - 13:45:18 10° WNW 13:45:49 10° NW 13:46:20 10° NW daylight
26 Sep - 20:45:19 10° N 20:49:05 22° NE 20:53:04 10° ESE daylight
26 Sep - 22:27:00 10° NW 22:31:39 40° WSW 22:36:43 10° S daylight
27 Sep - 11:16:16 10° S 11:20:08 31° ESE 11:23:57 10° NE daylight
27 Sep - 12:59:29 10° WSW 13:02:39 19° NW 13:05:46 10° N daylight
27 Sep - 20:03:58 10° NNE 20:05:55 12° NE 20:07:56 10° ENE daylight
27 Sep - 21:43:53 10° NNW 21:48:51 78° WSW 21:54:16 10° SSE daylight
28 Sep - 10:34:57 10° SE 10:37:28 15° ESE 10:39:56 10° ENE visible
28 Sep - 12:15:33 10° SW 12:19:36 37° WNW 12:23:36 10° N daylight
28 Sep - 21:01:06 10° NNW 21:05:57 56° ENE 21:11:15 10° SE daylight
28 Sep - 22:45:21 10° WNW 22:48:08 15° WSW 22:51:01 10° SW daylight
29 Sep - 11:32:17 10° SSW 11:36:41 78° WNW 11:40:59 10° NNE daylight
29 Sep - 20:18:38 10° N 20:23:00 31° ENE 20:27:41 10° ESE daylight
29 Sep - 22:01:09 10° NW 22:05:25 28° WSW 22:09:59 10° SSW daylight
30 Sep - 10:49:37 10° S 10:53:51 48° ESE 10:58:00 10° NE visible
30 Sep - 12:34:30 10° W 12:36:36 13° NW 12:38:41 10° NNW daylight
30 Sep - 19:36:37 10° NNE 19:39:55 18° NE 19:43:22 10° E daylight
30 Sep - 21:17:46 10° NW 21:22:37 52° WSW 21:27:55 10° S daylight
01 Oct - 10:07:38 10° SSE 10:11:07 23° ESE 10:14:32 10° NE visible
01 Oct - 11:49:53 10° WSW 11:53:28 25° WNW 11:57:01 10° N daylight
01 Oct - 20:34:47 10° NNW 20:39:47 83° ENE 20:45:15 10° SSE daylight
02 Oct - 09:27:17 10° ESE 09:28:28 11° ESE 09:29:38 10° E visible
02 Oct - 11:06:14 10° SW 11:10:28 49° WNW 11:14:39 10° NNE daylight
02 Oct - 19:52:07 10° NNW 19:56:51 44° ENE 20:02:01 10° SE daylight
02 Oct - 21:35:33 10° WNW 21:39:08 19° WSW 21:42:54 10° SSW daylight
03 Oct - 10:23:13 10° SSW 10:27:35 78° ESE 10:31:53 10° NNE visible
03 Oct - 19:09:47 10° N 19:13:51 25° ENE 19:18:12 10° ESE daylight
03 Oct - 20:51:46 10° NW 20:56:23 36° WSW 21:01:22 10° S daylight
04 Oct - 09:40:48 10° S 09:44:48 36° ESE 09:48:44 10° NE visible
04 Oct - 11:24:33 10° W 11:27:22 17° NW 11:30:12 10° NNW daylight
04 Oct - 18:28:03 10° NNE 18:30:43 14° NE 18:33:28 10° E daylight
04 Oct - 20:08:34 10° NNW 20:13:34 68° WSW 20:19:02 10° SSE daylight
05 Oct - 08:59:12 10° SSE 09:02:05 17° ESE 09:04:57 10° ENE visible
05 Oct - 10:40:24 10° WSW 10:44:17 32° WNW 10:48:10 10° N visible
05 Oct - 19:25:43 10° NNW 19:30:41 65° ENE 19:36:08 10° SE daylight
05 Oct - 21:10:31 10° W 21:12:49 13° WSW 21:15:11 10° SW daylight
